Tracking 19415 objects as of 15-Dec-2018
HD Live streaming from Space Station
objects crossing your sky now

FENGYUN 1C DEB

Track FENGYUN 1C DEB now!
10-day predictions


NORAD ID: 30306
Int'l Code: 1999-025ZT
Perigee: 744.6 km
Apogee: 940.4 km
Inclination: 98.8 °
Period: 101.6 minutes
Semi major axis: 7213 km
RCS: 0.0194 m2 (small)
Launch date: May 10, 1999
Source: People's Republic of China (PRC)
Launch site: Taiyaun Space Center, China (TSC)

Note: This is SATELLITE DEBRIS
aabbcc
Your satellite tracking list
Your tracking list is empty




NASA's NSSDC Master Catalog

Two Line Element Set (TLE):
1 30306U 99025ZT  18348.37817866  .00000349  00000-0  17833-3 0  9998
2 30306  98.8157  33.7388 0135710 165.6262 194.8834 14.17049652614231
Source of the keplerian elements: AFSPC